Regional Weather Roundup
Issued by NWS

Home | Current Version | Previous Version | Graphics & Text | Print | Product List | Glossary On
Versions: 1 2 3 4 5 6 7 8 9 10 11 12 13 14 15 16 17 18 19 20 21 22 23 24 25 26 27 28 29 30 31 32 33 34 35 36 37 38 39 40 41 42 43 44 45 46 47 48 49 50
000
ASUS45 KTFX 280319
RWRMT
MONTANA HOURLY WEATHER ROUNDUP
NATIONAL WEATHER SERVICE GREAT FALLS MT
819 PM MST THU NOV 27 2014

NOTE: "FAIR" INDICATES FEW OR NO CLOUDS BELOW 12000 FEET WITH NO
SIGNIFICANT WEATHER AND/OR OBSTRUCTIONS TO VISIBILITY.

* THESE STATIONS ARE NOT UNDER NWS QUALITY CONTROL. THEY DO NOT
   REPORT WEATHER SUCH AS PRECIPITATION OR FOG.

MTZ001>007-043-280400-
WEST OF THE DIVIDE
CITY           SKY/WX    TMP DP  RH WIND       PRES   REMARKS
KALISPELL      CLOUDY    46  37  71 S9G17     29.73F
MISSOULA       CLOUDY    48  37  66 CALM      29.85F
BUTTE          CLOUDY    43  34  71 S8        29.92F
MULLAN PASS    LGT RAIN  36  36 100 SW13G30   29.80F VSB 3/4  WCI  27
* ESSEX        N/A       39  37  93 W1G9       N/A
* EUREKA APT   MOCLDY    50  39  66 SE13G18   29.67F
* HAMILTON APT CLOUDY    50  37  61 S14       29.88F
* LIBBY APT    MOCLDY    43  41  93 NW6       29.72F VSB 1/2
* LINCOLN      N/A       35  34  96 NW2        N/A
* LOOKOUT PASS N/A       43  39  86 SE13G19    N/A
* POLSON       N/A       46  39  77 S2G9       N/A
* RONAN APT    PTCLDY    48  39  71 SE6        N/A
* SEELEY LAKE  N/A       37  35  92 SE2        N/A
* THOMP F APT  PTCLDY    40  30  68 SE3G11     N/A
* YAAK HILL    N/A       45  43  93 E3         N/A
$$

MTZ008-052>055-280400-
SOUTHWEST MONTANA
CITY           SKY/WX    TMP DP  RH WIND       PRES   REMARKS
BOZEMAN        CLOUDY    46  34  63 CALM      29.90R
DILLON         CLOUDY    46  34  63 S16       29.98F
* W YELLOWSTON MOCLDY    36  31  82 SW1G8      N/A
* ENNIS APT    CLOUDY   N/A N/A N/A N/A        N/A
* THREE FORKS  CLOUDY    46  -2  13 S28G38     N/A
* BOULDER HILL N/A       44  28  53 S15        N/A
* MONIDA PASS  N/A       37  31  79 SE16G21    N/A   WCI  28
* RAYNOLDS PAS N/A       40  28  62 S4         N/A
* WHITEHALL    N/A       50  35  57 SW16G26    N/A
* WISE RIVER   N/A       41  36  82 W11G21     N/A
$$

MTZ009>010-012-014-046-048-049-054-280400-
EAST SLOPES AND CENTRAL MONTANA
CITY           SKY/WX    TMP DP  RH WIND       PRES   REMARKS
CUT BANK       PTCLDY    39  34  82 SW17      29.65F WCI  30
GREAT FALLS    CLEAR     43  36  76 SW10      29.69F
HELENA         CLOUDY    48  34  59 E10       29.79F
MALMSTROM AFB  CLEAR     43  34  71 SW7       29.72S
* CONRAD       CLEAR     39  36  89 CALM       N/A
* DEARBORN     N/A       56  35  45 S14G21     N/A
* EAST GLACIER N/A       40  37  89 W18G29     N/A   WCI  31
* MONARCH      N/A       47  23  39 SW18G24    N/A
* PENDROY      N/A       44  36  74 W22G34     N/A
* ROGERS PASS  N/A       41  35  79 SE2G19     N/A
* SAINT MARY   N/A       40  37  89 S7G17      N/A   WCI  35
* SWEET GRASS  N/A       26  26 100 NE4        N/A
* WHITE SULPH  N/A       47  32  56 SW14G24    N/A
$$

MTZ011-013-016-021-035-040-045-047-050-051-280400-
NORTH CENTRAL MONTANA
CITY           SKY/WX    TMP DP  RH WIND       PRES   REMARKS
HAVRE          FOG       28  27  96 NW6       29.70S VSB 3/4  WCI  21
LEWISTOWN      MOCLDY    43  32  65 SW10      29.75F
* N BAR RANCH  FAIR      54  28  37 W16G30    29.76F
* CHINOOK      PTCLDY    28  27  96 NW3       29.70F VSB M1/4
* FORT BENTON  CLEAR     50  36  59 SW7       29.68F
* CHESTER      N/A       31  27  85 NE2        N/A
* DENTON       N/A       42  28  58 S16        N/A
* GEYSER       N/A       41  26  55 W8         N/A
* JUDITH GAP   N/A       46  28  50 SW18       N/A
* LOMA         N/A       50  37  61 SW17G24    N/A
$$

MTZ017>020-022>027-061-062-280400-
NORTHEAST MONTANA
CITY           SKY/WX    TMP DP  RH WIND       PRES   REMARKS
GLASGOW        FOG       25  21  85 E7        29.75R WCI  17
GLENDIVE       PTCLDY    30  28  92 SE3       29.75F
JORDAN         CLEAR     30  28  92 W5        29.72F WCI  25
SIDNEY         PTCLDY    19  16  88 N10       29.80S WCI   8
WOLF POINT     CLOUDY    21  19  92 NE10      29.79F WCI  10
* BEAVER HILL  N/A       37  31  79 S14G19     N/A   WCI  28
* CIRCLE       N/A       29  27  92 NE4        N/A
* LINDSAY DVD  N/A       44  34  68 SW11G16    N/A
* NAVAJO       N/A       16  14  92 E6         N/A   WCI   7
* PLENTYWOOD A CLEAR     16  12  84 N/A       29.81S
* POPLAR APT   CLEAR     19  16  88 N/A       29.78F
* SACO         N/A       24  23  96 NE10       N/A   WCI  14
$$

MTZ028>042-056>058-280400-
SOUTHCENTRAL AND SOUTHEAST MONTANA
CITY           SKY/WX    TMP DP  RH WIND       PRES   REMARKS
BAKER          CLOUDY    37  30  76 CALM      29.78F
BILLINGS       MOCLDY    48  28  46 SW22      29.79F
LIVINGSTON     CLOUDY    55  30  39 SW40G55   29.82F
MILES CITY     PTCLDY    41  34  76 SW8       29.76F
* BIG TIMBER A CLOUDY    54  30  40 SW26G35   29.77F
* FORSYTH APT  PTCLDY    48  32  54 W3        29.75F
* LAUREL APT   MOCLDY    46  23  40 N/A        N/A
* ALZADA       N/A       39  30  70 W2         N/A
* HYSHAM       N/A       51  23  33 W6         N/A
* LAME DEER    N/A       48  28  46 SW8        N/A
* REED POINT   N/A       38  33  82 SE1G6      N/A
* ROSCOE HILL  N/A       52  16  24 SW11G26    N/A
$$

REGIONAL REPORTS...DAKOTAS
CITY           SKY/WX    TMP DP  RH WIND       PRES   REMARKS
WILLISTON      PTCLDY    14  10  84 E7        29.83F WCI   4
DICKINSON      PTCLDY    21  18  88 S9        29.75F WCI  11
BEACH          PTCLDY    36  32  85 W12       29.76S WCI  28
CROSBY         CLOUDY    14  10  84 SE12      29.88S
TIOGA          CLOUDY    12  12 100 SE13      29.87F WCI  -3
BISMARCK       CLOUDY    10   3  73 SE13      29.95F WCI  -5
GRAND FORKS    LGT SNOW   9   3  76 S12       30.16F VSB 2 1/2 WCI  -6
FARGO          LGT SNOW   9   1  70 SE8       30.20F WCI  -3
BUFFALO SD     PTCLDY    27  21  78 CALM      29.74F
RAPID CITY     CLEAR     28  25  89 CALM      29.87S
$$

REGIONAL REPORTS...WYOMING/IDAHO/WASHINGTON
CITY           SKY/WX    TMP DP  RH WIND       PRES   REMARKS
GILLETTE       PTCLDY    45  28  51 SW13      29.89F
SHERIDAN       MOCLDY    43  27  53 CALM      29.85S
CODY           MOCLDY    52  28  40 SW9G24    29.91F
YELLOWSTONE LA CLOUDY    34  27  76 VRB5      30.13F WCI  29
SALMON         CLOUDY    48  36  63 SE7       29.99F
MULLAN PASS    LGT RAIN  36  36 100 SW13G30   29.80S VSB 3/4  WCI  27
SAND POINT     CLOUDY    50  43  77 SW7       29.73F
SPOKANE        FAIR      50  43  77 SW24G32   29.74F
$$

REGIONAL REPORTS...ALBERTA
CITY           SKY/WX    TMP DP  RH WIND       PRES   REMARKS
CALGARY        CLOUDY    10   7  88 N13       29.70F VSB 2    WCI  -5
LETHBRIDGE     CLOUDY    25  25 100 NW10      29.69F WCI  15
MEDICINE HAT   FOG       27  27 100 W3        29.70F VSB 2
EDMONTON       LGT SNOW   1  -4  79 NE13      29.92F VSB 1    WCI -17
MILK RIVER     N/A       25  25 100 N7         N/A   WCI  17
$$

REGIONAL REPORTS...SASKATCHEWAN
CITY           SKY/WX    TMP DP  RH WIND       PRES   REMARKS
SWIFT CURRENT  LGT SNOW  18  16  92 E17G24    29.72S VSB 3    WCI   3
REGINA         LGT SNOW  18  14  84 E16       29.88F WCI   3
VAL MARIE      N/A       23  23 100 E10        N/A   WCI  13
ASSINIBOIA     N/A       16  12  84 E14        N/A   WCI   2
CORONACH       N/A       18  16  92 E10        N/A   WCI   6

$$



USA.gov is the U.S. government's official web portal to all federal, state and local government web resources and services.